Overview Statistics Trail Chart Weather Telemetry Raw packets
 

This is the latest recevied weather packets stored in our database for station/object KJ5FA-9. If no packets are shown the sender has not sent any weather packets the latest 10 day(s).

<< 16 17 18 19 20 21 22 >>
Time Temp. Humidity Pressure Rain* Wind** Luminosity Snow
1787868628 34.44° C 44% 1014.8 hPa 0 mm - - -
1787867127 33.89° C 44% 1014.9 hPa 0 mm - - -
1787866935 34.44° C 44% 1015.1 hPa 0 mm 0.89 m/s, 15° - -
1787865627 35.56° C 42% 1015.2 hPa 0 mm - - -
1787865135 34.44° C 44% 1015.3 hPa 0 mm 0.45 m/s, 332° - -
1787864127 35° C 42% 1015.6 hPa 0 mm - - -
1787863335 34.44° C 43% 1015.4 hPa 0 mm 1.79 m/s, 0° - -
1787862627 35° C 43% 1015.3 hPa 0 mm - - -
1787861541 33.89° C 46% 1016 hPa 0 mm 0.45 m/s, 348° - -
1787861127 35° C 47% 1015.8 hPa 0 mm - - -
1787859735 33.89° C 49% 1016.1 hPa 0 mm 0.89 m/s, 264° - -
1787858128 34.44° C 47% 1016.2 hPa 0 mm - - -
1787857935 34.44° C 46% 1016.1 hPa 0 mm 0.89 m/s, 271° - -
1787856135 33.89° C 49% 1016.6 hPa 0 mm 0 m/s - -
1787855127 33.33° C 50% 1017 hPa 0 mm - - -
1787854335 33.33° C 50% 1017 hPa 0 mm 0.45 m/s, 293° - -
1787853627 32.78° C 52% 1017.1 hPa 0 mm - - -
1787852535 32.22° C 52% 1017.4 hPa 0 mm 0.45 m/s, 160° - -
1787852125 32.22° C 50% 1017.2 hPa 0 mm - - -
1787850735 31.11° C 53% 1017.5 hPa 0 mm 0.45 m/s, 37° - -
1787850627 31.11° C 54% 1017.5 hPa 0 mm - - -
1787849127 30.56° C 52% 1018 hPa 0 mm - - -
1787848935 30° C 52% 1017.7 hPa 0 mm 1.79 m/s, 339° - -
1787847627 28.89° C 59% 1017.9 hPa 0 mm - - -
1787847135 28.89° C 59% 1017.9 hPa 0 mm 0.89 m/s, 334° - -

* Rain latest hour (hover to see other rain measurements)
** Current wind speed in m/s (hover to see current wind gust speed)